Hourly Data Report for October 04, 2017

All times are specified in Local Standard Time (LST). Add 1 hour to adjust for Daylight Saving Time where and when it is observed.

ESTEVAN POINT CS
BRITISH COLUMBIA

49°22'59.914" N
126°32'35.193" W
5.80 m
1032731
71894
WEB

Download Data

Hourly Data (October 2017)
Hourly Data Report for October 4, 2017
Temp Definition
°C
Dew Point Temp Definition
°C
Rel Hum Definition
%
Wind Dir Definition
10's deg

Wind Spd Definition
km/h
Visibility Definition
km
Stn Press Definition
kPa
Hmdx Definition


Wind Chill Definition


Weather Definition


TIME
00:00 8.3 LegendMM LegendMM 10 4   102.13     LegendNANA
01:00 7.7 7.7 100 10 3   102.16     LegendNANA
02:00 8.0 8.0 100 13 1   102.13     LegendNANA
03:00 7.7 7.6 100 10 8   102.11     LegendNANA
04:00 7.6 7.5 99 11 6   102.12     LegendNANA
05:00 7.0 7.0 100 35 4   102.12     LegendNANA
06:00 7.0 7.0 100 6 5   102.09     LegendNANA
07:00 7.3 7.3 100 3 5   102.10     LegendNANA
08:00 7.7 7.7 100 9 3   102.14     LegendNANA
09:00 8.8 8.7 99 21 2   102.14     LegendNANA
10:00 11.8 11.4 98 0 1   102.14     LegendNANA
11:00 13.2 9.8 80 28 3   102.17     LegendNANA
12:00 15.0 11.1 78 18 6   102.17     LegendNANA
13:00 15.4 12.4 83 18 11   102.13     LegendNANA
14:00 15.1 12.1 83 18 7   102.13     LegendNANA
15:00 15.4 11.9 80 16 8   102.13     LegendNANA
16:00 15.0 12.6 86 19 6   102.13     LegendNANA
17:00 14.5 11.8 84 30 4   102.13     LegendNANA
18:00 12.0 11.5 96 34 7   102.10     LegendNANA
19:00 10.7 10.7 100 34 11   102.09     LegendNANA
20:00 10.4 10.4 100 34 12   102.09     LegendNANA
21:00 9.8 9.8 100 34 10   102.11     LegendNANA
22:00 9.7 LegendMM LegendMM 35 8   102.10     LegendNANA
23:00 8.6 LegendMM LegendMM 1 7   101.75     LegendNANA

Notes on Data Quality.

Legend

  • E = Estimated
  • M = Missing
  • NA = Not Available
  • ‡ = Partner data that is not subject to review by the National Climate Archives
Date modified: